Home > Weather > Stans > Past weeks

Flag for Switzerland Weather for the Past 2 Weeks in Stans, Nidwalden, Switzerland

Now
53 °F

Cool.


Feels Like: 53 °F
Forecast: 35 / 59 °F
Wind: 3 mph from West

Location: Giswil

Current Time: Apr 29, 2016 at 8:44:20 PM

Latest Report: Apr 29, 2016 at 8:00 PM


Visibility: N/A

Pressure: 30.01 "Hg

Humidity: 61%

Dew Point: 40 °F

Location of StansLocation

Historic Weather in Stans — Graph

°F

Stans Temperature Yesterday

Maximum temperature yesterday: 52 °F (at 5:00 PM)
Minimum temperature yesterday: 43 °F (at 10:00 PM)
Average temperature yesterday: 49 °F

High & Low Weather Summary for the Past Weeks

 TemperatureHumidityPressure
High69 °F (Apr 21, 5:00 PM)100% (Apr 16, 6:00 AM)30.36 "Hg (Apr 16, 6:00 AM)
Low29 °F (Apr 29, 6:00 AM)37% (Apr 25, 4:00 PM)29.63 "Hg (Apr 26, 5:00 PM)
Average48 °F76%29.98 "Hg
* Reported Apr 14 7:00 PM — Apr 29 7:00 PM, Stans, Weather by CustomWeather, © 2016

Note: Actual official high and low records may vary slightly from our data, if they occured in-between our weather recording intervals... More about our weather records

Advertising

Stans Weather History for the Previous 24 Hours

Scroll right to see more
 ConditionsComfort  
Time TempWeatherWind HumidityBarometerVisibility
7:00 PM
Fri, Apr 29
59 °FRefreshingly cool.3 mph47%29.98 "HgN/A
6:00 PM60 °FRefreshingly cool.5 mph46%29.98 "HgN/A
5:00 PM60 °FRefreshingly cool.5 mph45%29.98 "HgN/A
4:00 PM60 °FRefreshingly cool.5 mph43%29.99 "HgN/A
3:00 PM59 °FRefreshingly cool.5 mph42%29.99 "HgN/A
2:00 PM58 °FRefreshingly cool.3 mph43%30.01 "HgN/A
1:00 PM56 °FRefreshingly cool.3 mph41%30.03 "HgN/A
12:00 PM52 °FCool.2 mph42%30.06 "HgN/A
11:00 AM49 °FCool.2 mph48%30.07 "HgN/A
10:00 AM45 °FQuite cool.2 mph61%30.10 "HgN/A
9:00 AM41 °FQuite cool.1 mph72%30.12 "HgN/A
8:00 AM36 °FChilly.No wind89%30.14 "HgN/A
7:00 AM30 °FChilly.1 mph95%30.15 "HgN/A
6:00 AM29 °FChilly.2 mph96%30.15 "HgN/A
3:00 AM32 °FChilly.2 mph93%30.13 "HgN/A
2:00 AM33 °FChilly.2 mph92%30.12 "HgN/A
10:00 PM
Thu, Apr 28
43 °FQuite cool.1 mph77%30.06 "HgN/A
9:00 PM46 °FCool.2 mph63%30.03 "HgN/A
8:40 PM48 °FCool.1 mph54%30.02 "HgN/A
8:00 PM50 °FCool.3 mph49%30.01 "HgN/A
Weather by CustomWeather, © 2016

See weather overviewHow to use our weather pages